K5NCO Weather Reports


time (UTC)temp
F
wind
direction
speed
knots
gust
knots
rain 1hr
in
rain 24hr
in
rain mn
in
humidity
%
barometer
mb
20260504021706 71 156 3.5 3.5 0.00 0.00 0.00 48 1019.2
20260504021203 71 156 1.7 1.7 0.00 0.00 0.00 48 1019.0
20260504020700 71 118 2.6 3.5 0.00 0.00 0.00 48 1018.8
20260504020155 71 161 1.7 2.6 0.00 0.00 0.00 47 1018.8
20260504015652 71 167 2.6 2.6 0.00 0.00 0.00 46 1018.5
20260504015149 72 121 0.9 1.7 0.00 0.00 0.00 46 1018.4
20260504014644 72 148 2.6 3.5 0.00 0.00 0.00 45 1018.4
20260504014142 72 153 2.6 2.6 0.00 0.00 0.00 45 1018.5
20260504013640 73 144 2.6 2.6 0.00 0.00 0.00 44 1018.5
20260504013136 73 127 2.6 2.6 0.00 0.00 0.00 44 1018.3
20260504012633 73 147 1.7 2.6 0.00 0.00 0.00 43 1018.5
20260504012132 73 157 2.6 2.6 0.00 0.00 0.00 43 1018.3
20260504011628 73 160 2.6 2.6 0.00 0.00 0.00 42 1018.6
20260504011125 73 143 3.5 5.2 0.00 0.00 0.00 42 1018.6
20260504010620 73 133 4.3 5.2 0.00 0.00 0.00 41 1018.4
20260504010116 74 136 2.6 2.6 0.00 0.00 0.00 42 1018.5
20260504005613 74 179 5.2 7.8 0.00 0.00 0.00 41 1018.5
20260504005110 74 145 3.5 3.5 0.00 0.00 0.00 41 1018.4
20260504004608 74 140 5.2 7.0 0.00 0.00 0.00 41 1018.4
20260504004105 74 191 3.5 6.1 0.00 0.00 0.00 41 1018.5
20260504003601 74 152 5.2 6.1 0.00 0.00 0.00 41 1018.5
20260504003058 75 130 5.2 6.1 0.00 0.00 0.00 42 1018.5
20260504002555 75 121 2.6 2.6 0.00 0.00 0.00 42 1018.5
20260504002053 75 130 3.5 3.5 0.00 0.00 0.00 42 1018.8
20260504001550 75 162 4.3 5.2 0.00 0.00 0.00 41 1018.7
20260504001046 75 186 5.2 7.0 0.00 0.00 0.00 42 1018.6
20260504000543 75 204 1.7 2.6 0.00 0.00 0.00 43 1018.9
20260504000041 75 91 3.5 5.2 0.00 0.00 0.00 43 1018.9
20260503235539 75 167 5.2 6.1 0.00 0.00 0.00 42 1019.0
20260503235036 75 182 7.0 9.6 0.00 0.00 0.00 41 1018.9
20260503234533 76 203 5.2 7.0 0.00 0.00 0.00 42 1018.9
20260503234031 76 115 4.3 6.1 0.00 0.00 0.00 41 1018.9
20260503233527 76 110 1.7 2.6 0.00 0.00 0.00 42 1019.0
20260503233023 76 174 3.5 3.5 0.00 0.00 0.00 42 1019.0
20260503232521 76 178 2.6 3.5 0.00 0.00 0.00 41 1019.0
20260503232018 76 162 3.5 3.5 0.00 0.00 0.00 42 1019.2
20260503231516 76 162 5.2 6.1 0.00 0.00 0.00 41 1019.1
20260503231012 76 136 3.5 5.2 0.00 0.00 0.00 41 1018.9
20260503230509 76 172 5.2 6.1 0.00 0.00 0.00 41 1018.9
20260503230007 77 153 7.0 8.7 0.00 0.00 0.00 39 1018.8
20260503225503 77 182 5.2 7.0 0.00 0.00 0.00 39 1019.0
20260503224958 78 135 9.6 11.3 0.00 0.00 0.00 38 1018.9
20260503224456 77 104 7.8 13.0 0.00 0.00 0.00 39 1019.0
20260503223953 77 164 4.3 6.1 0.00 0.00 0.00 40 1019.2
20260503223451 77 101 2.6 5.2 0.00 0.00 0.00 40 1019.3
20260503222946 78 169 6.1 7.0 0.00 0.00 0.00 38 1019.3
20260503222445 78 119 4.3 5.2 0.00 0.00 0.00 38 1019.3
20260503221943 78 169 8.7 9.6 0.00 0.00 0.00 39 1019.3
20260503221441 78 208 2.6 5.2 0.00 0.00 0.00 39 1019.5
20260503220937 77 194 7.0 7.8 0.00 0.00 0.00 38 1019.6
20260503220434 78 117 5.2 7.8 0.00 0.00 0.00 39 1019.5
20260503215931 77 128 5.2 6.1 0.00 0.00 0.00 37 1019.6
20260503215428 78 153 8.7 9.6 0.00 0.00 0.00 38 1019.8
20260503214926 77 190 6.1 8.7 0.00 0.00 0.00 36 1019.6
20260503214423 77 157 5.2 6.1 0.00 0.00 0.00 38 1019.8
20260503213920 78 153 6.1 7.0 0.00 0.00 0.00 38 1020.0
20260503213418 78 161 3.5 5.2 0.00 0.00 0.00 38 1020.1
20260503212914 78 85 4.3 5.2 0.00 0.00 0.00 36 1020.3
20260503212412 77 139 6.1 7.8 0.00 0.00 0.00 37 1020.3
20260503211910 77 127 5.2 7.0 0.00 0.00 0.00 39 1020.1
20260503211406 77 139 6.1 9.6 0.00 0.00 0.00 39 1020.3
20260503210901 78 166 5.2 7.0 0.00 0.00 0.00 38 1020.6
20260503210359 78 198 8.7 12.2 0.00 0.00 0.00 39 1020.7
20260503205853 77 196 3.5 3.5 0.00 0.00 0.00 39 1020.8
20260503205350 78 118 4.3 7.0 0.00 0.00 0.00 38 1020.8
20260503204847 77 84 7.8 9.6 0.00 0.00 0.00 39 1020.9
20260503204344 77 152 5.2 7.8 0.00 0.00 0.00 40 1020.9
20260503203841 77 191 6.1 7.8 0.00 0.00 0.00 38 1021.2
20260503203339 77 117 7.8 8.7 0.00 0.00 0.00 38 1021.0
20260503202836 77 102 7.8 8.7 0.00 0.00 0.00 37 1021.3
20260503202334 77 127 3.5 5.2 0.00 0.00 0.00 39 1021.4
20260503201832 77 138 9.6 11.3 0.00 0.00 0.00 37 1021.5
20260503201328 77 161 6.1 7.8 0.00 0.00 0.00 36 1021.6
20260503200826 78 136 6.1 8.7 0.00 0.00 0.00 38 1021.5
20260503200321 79 136 9.6 12.2 0.00 0.00 0.00 34 1021.5
20260503195819 77 77 3.5 8.7 0.00 0.00 0.00 39 1021.7
20260503195315 77 234 7.0 7.8 0.00 0.00 0.00 39 1021.9
20260503194813 77 201 6.1 7.8 0.00 0.00 0.00 38 1021.9
20260503194309 77 79 5.2 6.1 0.00 0.00 0.00 36 1021.9
20260503193805 77 164 7.8 9.6 0.00 0.00 0.00 37 1022.2
20260503193301 76 131 10.4 12.2 0.00 0.00 0.00 37 1022.2
20260503192757 77 163 2.6 3.5 0.00 0.00 0.00 38 1022.1
20260503192252 77 134 7.0 8.7 0.00 0.00 0.00 38 1022.0
20260503191749 77 166 3.5 3.5 0.00 0.00 0.00 40 1022.1
20260503191246 76 201 3.5 3.5 0.00 0.00 0.00 40 1022.4
20260503190743 76 218 2.6 3.5 0.00 0.00 0.00 41 1022.3
20260503190240 76 153 5.2 7.8 0.00 0.00 0.00 39 1022.4
20260503185737 76 145 0.9 2.6 0.00 0.00 0.00 42 1022.4
20260503185232 77 183 7.0 9.6 0.00 0.00 0.00 40 1022.8
20260503184727 76 159 7.8 8.7 0.00 0.00 0.00 38 1022.6
20260503184224 76 156 9.6 11.3 0.00 0.00 0.00 37 1022.8
20260503183720 75 106 5.2 7.8 0.00 0.00 0.00 38 1022.9
20260503183218 76 238 2.6 5.2 0.00 0.00 0.00 39 1023.0
20260503182716 76 128 2.6 2.6 0.00 0.00 0.00 38 1023.1
20260503182214 76 136 7.0 7.8 0.00 0.00 0.00 36 1023.3
20260503181710 77 146 8.7 12.2 0.00 0.00 0.00 37 1023.4
20260503181208 76 97 1.7 2.6 0.00 0.00 0.00 41 1023.2
20260503180704 75 170 5.2 7.0 0.00 0.00 0.00 39 1023.2
20260503180203 75 211 5.2 7.0 0.00 0.00 0.00 41 1023.7
20260503175659 75 127 6.1 7.0 0.00 0.00 0.00 41 1023.7
20260503175156 76 158 7.8 8.7 0.00 0.00 0.00 38 1023.9
20260503174652 75 85 1.7 2.6 0.00 0.00 0.00 44 1023.8
20260503174150 75 179 9.6 9.6 0.00 0.00 0.00 42 1023.8
20260503173645 75 195 3.5 5.2 0.00 0.00 0.00 41 1024.0
20260503173142 75 166 7.0 7.8 0.00 0.00 0.00 40 1023.8
20260503172638 75 90 3.5 5.2 0.00 0.00 0.00 40 1023.8
20260503172136 76 112 3.5 5.2 0.00 0.00 0.00 45 1024.1
20260503171632 75 191 7.0 8.7 0.00 0.00 0.00 40 1024.0
20260503171130 75 94 3.5 5.2 0.00 0.00 0.00 43 1024.1
20260503170626 75 173 2.6 3.5 0.00 0.00 0.00 43 1024.2
20260503170123 75 194 5.2 6.1 0.00 0.00 0.00 41 1024.5
20260503150515 70 199 4.3 6.1 0.00 0.00 0.00 56 1024.6
20260503131408 59 221 4.3 5.2 0.00 0.00 0.00 77 1024.2
20260503130905 59 217 2.6 3.5 0.00 0.00 0.00 78 1024.2
20260503130402 59 213 2.6 2.6 0.00 0.00 0.00 78 1024.4
20260503110806 53 247 0.0 0.9 0.00 0.00 0.00 89 1023.4
20260503110303 53 247 0.0 0.0 0.00 0.00 0.00 89 1023.1
20260503100229 54 233 0.9 1.7 0.00 0.00 0.00 89 1022.8
20260503090154 55 249 0.0 0.0 0.00 0.00 0.00 89 1022.9
20260503081624 55 253 0.0 0.0 0.00 0.00 0.00 89 1022.8
20260503081121 55 253 0.0 0.0 0.00 0.00 0.00 90 1022.6
20260503080617 55 233 0.0 0.0 0.00 0.00 0.00 89 1023.0
20260503080114 55 232 0.0 0.0 0.00 0.00 0.00 89 1023.1
20260503072551 56 248 0.0 0.0 0.00 0.00 0.00 87 1023.1
20260503072048 56 248 0.0 0.0 0.00 0.00 0.00 88 1023.1
20260503071545 56 249 0.0 0.0 0.00 0.00 0.00 87 1023.2
20260503071042 56 248 0.0 0.0 0.00 0.00 0.00 87 1023.2
20260503070538 57 248 0.0 0.0 0.00 0.00 0.00 86 1023.4
20260503054957 58 256 0.0 0.0 0.00 0.00 0.00 83 1023.3
20260503054453 58 256 0.0 0.0 0.00 0.00 0.00 83 1023.3
20260503053951 59 256 0.0 0.0 0.00 0.00 0.00 81 1023.5
20260503053448 59 256 0.0 0.0 0.00 0.00 0.00 79 1023.5
20260503052945 59 256 0.0 0.0 0.00 0.00 0.00 79 1023.6
20260503052443 59 249 0.0 0.0 0.00 0.00 0.00 78 1023.7
20260503051938 59 249 0.0 0.0 0.00 0.00 0.00 79 1023.4
20260503051434 59 239 0.0 0.0 0.00 0.00 0.00 79 1023.5
20260503050932 59 237 0.0 0.0 0.00 0.00 0.00 80 1023.5
20260503050427 59 225 0.0 0.0 0.00 0.00 0.00 79 1023.4
20260503045926 60 225 0.0 0.0 0.00 0.00 0.00 77 1023.3
20260503045423 60 225 0.0 0.0 0.00 0.00 0.00 76 1023.2
20260503044919 60 233 0.0 0.0 0.00 0.00 0.00 77 1023.3
20260503044416 60 233 0.0 0.0 0.00 0.00 0.00 77 1023.4
20260503043914 60 233 0.0 0.0 0.00 0.00 0.00 76 1023.4
20260503043411 61 208 0.0 0.0 0.00 0.00 0.00 76 1023.2
20260503042907 61 120 0.0 0.0 0.00 0.00 0.00 75 1023.3
20260503042403 61 120 0.0 0.0 0.00 0.00 0.00 74 1023.4
20260503041859 60 120 0.0 0.0 0.00 0.00 0.00 74 1023.1
20260503041357 60 119 0.0 0.0 0.00 0.00 0.00 75 1023.2
20260503040854 61 119 0.0 0.0 0.00 0.00 0.00 73 1023.2
20260503040352 62 119 0.0 0.0 0.00 0.00 0.00 72 1023.2
20260503035848 62 119 0.0 0.0 0.00 0.00 0.00 70 1023.2
20260503035346 62 120 0.0 0.0 0.00 0.00 0.00 70 1023.3
20260503034843 60 119 0.0 0.0 0.00 0.00 0.00 74 1023.1
20260503034340 60 119 0.0 0.0 0.00 0.00 0.00 73 1023.3
20260503033837 61 119 0.0 0.0 0.00 0.00 0.00 73 1023.2
20260503033335 61 119 0.0 0.0 0.00 0.00 0.00 72 1023.0
20260503032833 61 119 0.0 0.0 0.00 0.00 0.00 71 1023.0
20260503032331 62 119 0.0 0.0 0.00 0.00 0.00 69 1022.8
20260503031828 63 119 0.0 0.0 0.00 0.00 0.00 68 1023.0
20260503031326 63 119 0.0 0.0 0.00 0.00 0.00 67 1023.1
20260503030822 64 119 0.0 0.0 0.00 0.00 0.00 64 1022.8
20260503030319 64 119 0.0 0.0 0.00 0.00 0.00 63 1022.9
20260503025815 64 119 0.0 0.0 0.00 0.00 0.00 65 1022.9
20260503025313 64 119 0.0 0.0 0.00 0.00 0.00 65 1022.8
20260503024809 64 111 0.0 0.0 0.00 0.00 0.00 65 1022.8
20260503024306 64 91 0.0 0.0 0.00 0.00 0.00 64 1022.5
20260503023804 65 91 0.0 0.0 0.00 0.00 0.00 62 1022.3
20260503023301 65 91 0.0 0.0 0.00 0.00 0.00 62 1022.1
20260503022757 65 91 0.0 0.0 0.00 0.00 0.00 61 1022.2
20260503022257 66 91 0.0 0.0 0.00 0.00 0.00 59 1022.1
20260503021754 67 91 0.0 0.0 0.00 0.00 0.00 58 1022.0